{"data":{"norad_id":63667,"epoch":"2026-09-20T22:18:23.090688Z","epoch_age_seconds":115511,"freshness":"FRESH","line1":"1 63667U 25085D   26263.92943392  .00089175  00000+0  69043-3 0  9992","line2":"2 63667  43.0017 181.9639 0002238 269.3014  90.7597 15.70859134 80853","mean_motion":15.70859134,"eccentricity":0.0002238,"inclination_deg":43.0017,"raan_deg":181.9639,"arg_perigee_deg":269.3014,"mean_anomaly_deg":90.7597,"bstar":0.00069043,"rev_number":8085,"period_min":91.669581876079,"perigee_km":354.93317515449,"apogee_km":357.9475719869,"semimajor_km":6734.5773735707,"source":"CELESTRAK","updated_at":"2026-09-21T09:00:35.057327Z"}}